Location: Dealu Mare
(46.0500°N, 22.8167°E)
Time: 22:40:23
(UTC+00:00)

Cosmos 1943 Rocket - Pass Details

Date: 15 January 2026
Orbit: 811 x 842 km, 71.0° (Epoch: 11 February)

Event Time Altitude Azimuth Distance (km) Brightness Sun altitude
Rises 05:20:51 0° 237° (WSW) 3,327 5.0 -8.0°
Reaches altitude 10° 05:23:33 10° 248° (WSW) 2,398 4.2 -7.6°
Maximum altitude 05:28:20 30° 309° (NW) 1,426 2.9 -6.8°
Drops below altitude 10° 05:33:09 10° 10° (N) 2,410 4.4 -6.0°
Sets 05:35:53 0° 21° (NNE) 3,347 5.3 -5.6°
